[[{"header":{"parameterUnit":"m.s-1","parameterCategory":1,"la1":30.2991,"la2":30.254,"lo1":-89.0895,"lo2":-89.0444,"dy":0.0017,"dx":0.0017,"nx":28,"ny":28,"refTime":"2025-02-01T03:00:00:Z","depth":0,"parameterNumber":2,"parameterNumberName":"U-component_of_WINDS"},"data":[0,0,0,0,0,0,0,0,0,0,0,0,0,0,0,0,0,0,0,0,0,0,0,0,0,0,0,0,0,0,0,0,0,0,0,0,0,0,0,0,0,0,0,0,0,0,0,0,0,0,0,0,0,0,0,0,0,0,-1.4047,-1.4048,0,-1.407,-1.407,-1.407,-1.4057,-1.4056,-1.4056,-1.4055,-1.4078,-1.4079,-1.4081,0,0,0,0,0,0,0,0,0,0,0,0,0,-1.3993,-1.3994,-1.4047,-1.4048,-1.4048,-1.407,-1.407,-1.407,-1.4057,-1.4056,-1.4055,-1.4055,-1.4078,-1.4079,-1.4081,0,0,0,0,0,0,0,0,0,0,0,0,0,-1.4016,-1.3994,-1.4047,-1.4044,-1.4044,-1.407,-1.407,-1.4071,-1.4057,-1.4056,-1.4055,-1.4054,-1.4077,-1.4079,-1.4081,-1.4112,0,0,-1.4087,-1.4087,0,0,0,0,0,0,0,0,-1.4015,-1.4018,-1.4044,-1.4044,-1.4044,-1.406,-1.4059,-1.4084,-1.4057,-1.4052,-1.4055,-1.4054,-1.4073,-1.4075,-1.4081,-1.4113,-1.4114,-1.4087,-1.4088,-1.4089,-1.4089,0,0,0,0,0,0,0,-1.4013,-1.4017,-1.4056,-1.4044,-1.4044,-1.4041,-1.4043,-1.4064,-1.4068,-1.4052,-1.4051,-1.4054,-1.4073,-1.408,-1.4082,-1.4114,-1.4087,-1.4088,-1.4089,-1.409,-1.4172,-1.4173,0,0,0,0,0,0,-1.4012,-1.4016,-1.4056,-1.4057,-1.4027,-1.4043,-1.4045,-1.4056,-1.4067,-1.4068,-1.4055,-1.4054,-1.4077,-1.408,-1.4083,-1.4119,-1.4089,-1.409,-1.4091,-1.4171,-1.4172,-1.4173,0,0,0,0,0,0,-1.4011,-1.4015,-1.4055,-1.4036,-1.4041,-1.4045,-1.4056,-1.4057,-1.4063,-1.4069,-1.407,-1.4062,-1.4076,-1.408,-1.4105,-1.412,-1.4091,-1.4093,-1.417,-1.4171,-1.4173,-1.4193,0,0,0,0,0,0,-1.4009,-1.4015,-1.4027,-1.4036,-1.4042,-1.4076,-1.4057,-1.4058,-1.4067,-1.4065,-1.4076,-1.4076,-1.4076,-1.4102,-1.4106,-1.4122,-1.4094,-1.4168,-1.417,-1.4172,-1.4191,-1.4196,-1.4199,0,0,0,0,0,-1.4007,-1.4032,-1.4028,-1.4032,-1.4057,-1.4077,-1.408,-1.4079,-1.4068,-1.408,-1.4084,-1.4076,-1.4118,-1.4105,-1.4109,-1.4126,-1.4167,-1.417,-1.4172,-1.419,-1.4195,-1.4199,0,0,0,0,0,0,-1.4024,-1.4033,-1.4028,-1.4057,-1.4066,-1.4075,-1.409,-1.4084,-1.4097,-1.4095,-1.4093,-1.4096,-1.4121,-1.4126,-1.4111,-1.4156,-1.4141,-1.4144,-1.4152,-1.4157,-1.4161,-1.4159,-1.4096,0,0,0,0,0,-1.4031,-1.4047,-1.4054,-1.4079,-1.4084,-1.4086,-1.4095,-1.4093,-1.4103,-1.4107,-1.4112,-1.4122,-1.4137,-1.4148,-1.4162,-1.4192,-1.4194,-1.4206,-1.4209,-1.4213,-1.4216,-1.4232,-1.4237,-1.4181,-1.4181,-1.4181,0,0,-1.4046,-1.4053,-1.4063,-1.4082,-1.4089,-1.4106,-1.4089,-1.4108,-1.412,-1.411,-1.4133,-1.4138,-1.4148,-1.4176,-1.4188,-1.4181,-1.4232,-1.4216,-1.4218,-1.422,-1.4235,-1.424,-1.4245,-1.4183,-1.4183,-1.4182,0,0,-1.4081,-1.4088,-1.4109,-1.4117,-1.4128,-1.4129,-1.4134,-1.4143,-1.4146,-1.417,-1.4162,-1.4177,-1.4203,-1.4211,-1.4218,-1.4256,-1.425,-1.4261,-1.4281,-1.4297,-1.4302,-1.4305,-1.4319,-1.4324,-1.4264,-1.4264,-1.4264,0,-1.4098,-1.4123,-1.4121,-1.414,-1.4148,-1.4139,-1.4161,-1.4168,-1.4183,-1.4189,-1.418,-1.4213,-1.422,-1.4249,-1.4258,-1.4265,-1.427,-1.426,-1.4301,-1.4305,-1.4309,-1.4322,-1.4327,-1.4266,-1.4265,-1.4265,-1.4265,0,-1.4143,-1.4161,-1.4176,-1.4191,-1.4201,-1.4221,-1.4222,-1.4233,-1.423,-1.4232,-1.4256,-1.4264,-1.428,-1.4286,-1.4284,-1.4315,-1.431,-1.4301,-1.4286,-1.4315,-1.4327,-1.4332,-1.4267,-1.4267,-1.4267,-1.4266,0,0,-1.419,-1.4203,-1.4209,-1.4216,-1.4227,-1.424,-1.426,-1.4275,-1.4284,-1.4295,-1.4311,-1.4334,-1.4325,-1.4334,-1.4332,-1.4346,-1.4376,-1.4335,-1.4336,-1.4343,-1.4411,-1.4418,-1.4423,-1.4371,-1.4372,-1.4373,-1.441,0,-1.4227,-1.4261,-1.4259,-1.4291,-1.4307,-1.4298,-1.4315,-1.4324,-1.4327,-1.4341,-1.4343,-1.4359,-1.4347,-1.4352,-1.4366,-1.4369,-1.4389,-1.4367,-1.4387,-1.4387,-1.4384,-1.443,-1.4437,-1.4471,-1.4415,-1.4415,-1.4416,0,-1.4273,-1.4286,-1.4319,-1.4328,-1.4334,-1.435,-1.4363,-1.4377,-1.4386,-1.4387,-1.4397,-1.4393,-1.4412,-1.4396,-1.4423,-1.4408,-1.4416,-1.4419,-1.442,-1.4422,-1.4404,-1.4433,-1.4482,-1.4487,-1.4423,-1.4423,-1.4422,0,-1.4305,-1.4329,-1.4352,-1.4358,-1.4369,-1.438,-1.4385,-1.4394,-1.4403,-1.4415,-1.4421,-1.4435,-1.4443,-1.4454,-1.4453,-1.4442,-1.4481,-1.4465,-1.4482,-1.4482,-1.4491,-1.4491,-1.4543,-1.4496,-1.4496,-1.4496,-1.4496,0,-1.4345,-1.4366,-1.4366,-1.4381,-1.4404,-1.4402,-1.4424,-1.4428,-1.4436,-1.4451,-1.4444,-1.4459,-1.4457,-1.4472,-1.4472,-1.4494,-1.4498,-1.4499,-1.4499,-1.45,-1.4499,-1.4505,-1.4503,-1.4497,-1.4497,-1.4497,-1.4497,0,-1.4384,-1.4385,-1.441,-1.4418,-1.442,-1.4437,-1.4444,-1.4457,-1.4459,-1.4478,-1.4482,-1.4485,-1.4502,-1.4503,-1.4522,-1.4521,-1.4549,-1.4546,-1.4546,-1.4545,-1.4563,-1.4561,-1.462,-1.4628,-1.4576,-1.4577,-1.4577,0,-1.441,-1.4426,-1.4435,-1.4445,-1.445,-1.4466,-1.4475,-1.4473,-1.4483,-1.4495,-1.4508,-1.4523,-1.4536,-1.4562,-1.4566,-1.4581,-1.4578,-1.4598,-1.458,-1.4581,-1.4578,-1.4578,-1.4579,-1.4601,-1.4602,-1.4602,-1.4603,0,-1.4456,-1.4456,-1.4469,-1.4483,-1.4494,-1.4505,-1.4515,-1.4523,-1.4523,-1.4534,-1.4551,-1.456,-1.4579,-1.4595,-1.4609,-1.4614,-1.4609,-1.4608,-1.4613,-1.4614,-1.4613,-1.4614,-1.4555,-1.4607,-1.4606,-1.4606,-1.4606,-1.4606,-1.4489,-1.4503,-1.4512,-1.4527,-1.4534,-1.4544,-1.4557,-1.456,-1.4574,-1.4589,-1.4587,-1.4606,-1.4615,-1.4633,-1.4639,-1.4654,-1.4647,-1.4654,-1.4656,-1.4658,-1.466,-1.4611,-1.4656,-1.4656,-1.4656,-1.4656,-1.4656,0,-1.4535,-1.454,-1.4554,-1.4568,-1.458,-1.4573,-1.4584,-1.4595,-1.4611,-1.462,-1.4632,-1.4651,-1.4666,-1.4671,-1.4686,-1.4696,-1.4694,-1.47,-1.47,-1.4701,-1.4665,-1.4659,-1.4702,-1.4702,-1.4702,-1.4702,-1.4702,-1.4702,-1.456,-1.4583,-1.4584,-1.461,-1.4615,-1.4633,-1.4639,-1.4648,-1.4655,-1.4676,-1.4689,-1.4692,-1.4699,-1.4714,-1.4728,-1.4729,-1.4735,-1.4742,-1.4742,-1.4708,-1.4704,-1.4699,-1.4694,-1.4743,-1.4743,-1.4777,-1.4777,-1.4778]},{"header":{"parameterUnit":"m.s-1","parameterCategory":1,"la1":30.2991,"la2":30.254,"lo1":-89.0895,"lo2":-89.0444,"dy":0.0017,"dx":0.0017,"nx":28,"ny":28,"refTime":"2025-02-01T03:00:00:Z","depth":0,"parameterNumber":3,"parameterNumberName":"V-component_of_WINDS"},"data":[0,0,0,0,0,0,0,0,0,0,0,0,0,0,0,0,0,0,0,0,0,0,0,0,0,0,0,0,0,0,0,0,0,0,0,0,0,0,0,0,0,0,0,0,0,0,0,0,0,0,0,0,0,0,0,0,0,0,-0.7546,-0.7546,0,-0.7573,-0.7573,-0.7573,-0.7582,-0.7582,-0.7582,-0.7582,-0.7608,-0.7608,-0.7609,0,0,0,0,0,0,0,0,0,0,0,0,0,-0.75,-0.7501,-0.7546,-0.7546,-0.7547,-0.7573,-0.7573,-0.7574,-0.7582,-0.7582,-0.7582,-0.7582,-0.7607,-0.7608,-0.7609,0,0,0,0,0,0,0,0,0,0,0,0,0,-0.7523,-0.7501,-0.7546,-0.7554,-0.7555,-0.7573,-0.7573,-0.7574,-0.7582,-0.7582,-0.7582,-0.7582,-0.7607,-0.7608,-0.7609,-0.762,0,0,-0.7613,-0.7613,0,0,0,0,0,0,0,0,-0.7521,-0.7524,-0.7553,-0.7554,-0.7555,-0.7574,-0.7566,-0.7589,-0.7582,-0.7572,-0.7582,-0.7582,-0.7596,-0.7599,-0.7604,-0.7621,-0.7622,-0.7613,-0.7614,-0.7614,-0.7615,0,0,0,0,0,0,0,-0.752,-0.7523,-0.7557,-0.7553,-0.7554,-0.7556,-0.7559,-0.7571,-0.7585,-0.7573,-0.7574,-0.7577,-0.7597,-0.7603,-0.7605,-0.7623,-0.7613,-0.7614,-0.7615,-0.7615,-0.7649,-0.765,0,0,0,0,0,0,-0.7517,-0.7522,-0.7556,-0.7557,-0.7537,-0.7557,-0.756,-0.7568,-0.7585,-0.7587,-0.7577,-0.7577,-0.7601,-0.7603,-0.7605,-0.7619,-0.7614,-0.7615,-0.7616,-0.7649,-0.765,-0.765,0,0,0,0,0,0,-0.7516,-0.752,-0.7555,-0.754,-0.7544,-0.7558,-0.7567,-0.7569,-0.7574,-0.7588,-0.759,-0.758,-0.7601,-0.7604,-0.7616,-0.762,-0.7616,-0.7617,-0.7649,-0.7649,-0.765,-0.7646,0,0,0,0,0,0,-0.7515,-0.752,-0.7524,-0.754,-0.7545,-0.7566,-0.7567,-0.7569,-0.7577,-0.7577,-0.7592,-0.7594,-0.7601,-0.7615,-0.7618,-0.7621,-0.7618,-0.7649,-0.7649,-0.765,-0.7645,-0.7646,-0.7646,0,0,0,0,0,-0.7513,-0.7522,-0.7524,-0.7529,-0.7551,-0.7566,-0.7569,-0.7577,-0.7577,-0.7581,-0.759,-0.7593,-0.7619,-0.7616,-0.7619,-0.7623,-0.7649,-0.7649,-0.765,-0.7645,-0.7646,-0.7646,0,0,0,0,0,0,-0.7506,-0.7524,-0.7527,-0.7541,-0.7552,-0.7567,-0.7573,-0.7577,-0.7588,-0.7588,-0.7598,-0.7601,-0.7612,-0.7619,-0.7615,-0.7634,-0.7634,-0.7635,-0.763,-0.763,-0.763,-0.7628,-0.7619,0,0,0,0,0,-0.7506,-0.7517,-0.7532,-0.7543,-0.7548,-0.756,-0.7566,-0.7572,-0.7583,-0.7588,-0.7597,-0.7607,-0.7617,-0.7624,-0.7634,-0.7646,-0.7649,-0.7651,-0.7651,-0.7651,-0.7652,-0.7659,-0.7659,-0.7651,-0.7651,-0.7651,0,0,-0.7506,-0.7517,-0.7524,-0.7542,-0.7551,-0.7561,-0.7563,-0.7574,-0.7582,-0.7589,-0.7602,-0.7609,-0.7621,-0.7633,-0.7639,-0.7639,-0.7655,-0.7652,-0.7652,-0.7653,-0.7659,-0.766,-0.7661,-0.7652,-0.7651,-0.7651,0,0,-0.7512,-0.7522,-0.7532,-0.7541,-0.7554,-0.7562,-0.7564,-0.7579,-0.7584,-0.7597,-0.7603,-0.7611,-0.7629,-0.7637,-0.7644,-0.7652,-0.7655,-0.7655,-0.7656,-0.7662,-0.7663,-0.7664,-0.7666,-0.7667,-0.7656,-0.7656,-0.7656,0,-0.751,-0.7527,-0.7536,-0.7547,-0.7555,-0.7562,-0.7572,-0.758,-0.7596,-0.7601,-0.7601,-0.7623,-0.7631,-0.7645,-0.7647,-0.7652,-0.7655,-0.7653,-0.7662,-0.7663,-0.7664,-0.7666,-0.7667,-0.7656,-0.7656,-0.7656,-0.7656,0,-0.7524,-0.7535,-0.7541,-0.7557,-0.7566,-0.7576,-0.7586,-0.7593,-0.7598,-0.7606,-0.7618,-0.7629,-0.7641,-0.7645,-0.7649,-0.7659,-0.7659,-0.766,-0.766,-0.7664,-0.7667,-0.7668,-0.7655,-0.7655,-0.7656,-0.7656,0,0,-0.7526,-0.7547,-0.7549,-0.7556,-0.7572,-0.758,-0.759,-0.7603,-0.7609,-0.7619,-0.7628,-0.7642,-0.7644,-0.7651,-0.7657,-0.7662,-0.7668,-0.7663,-0.7663,-0.7663,-0.7679,-0.7677,-0.7679,-0.767,-0.767,-0.767,-0.7678,0,-0.7533,-0.7553,-0.7561,-0.7577,-0.7587,-0.7594,-0.7603,-0.7613,-0.762,-0.7629,-0.7636,-0.7646,-0.7648,-0.7652,-0.7658,-0.7666,-0.7671,-0.7665,-0.7677,-0.7678,-0.7674,-0.768,-0.7679,-0.7685,-0.7679,-0.7679,-0.7679,0,-0.7545,-0.7556,-0.7572,-0.7586,-0.7591,-0.7599,-0.7611,-0.762,-0.7631,-0.7636,-0.7644,-0.7649,-0.7659,-0.7658,-0.7672,-0.7668,-0.7673,-0.7678,-0.7678,-0.768,-0.7679,-0.7681,-0.7688,-0.7688,-0.7681,-0.7681,-0.7681,0,-0.7544,-0.7563,-0.7576,-0.7582,-0.7598,-0.7604,-0.7611,-0.7622,-0.7629,-0.7639,-0.7643,-0.7654,-0.766,-0.7669,-0.7676,-0.7675,-0.7689,-0.7689,-0.7693,-0.7693,-0.7696,-0.7695,-0.7703,-0.7699,-0.7699,-0.7699,-0.7699,0,-0.7552,-0.7561,-0.7576,-0.7583,-0.7594,-0.7604,-0.7614,-0.7621,-0.7631,-0.7639,-0.7646,-0.7653,-0.7663,-0.7672,-0.7678,-0.7688,-0.7691,-0.7695,-0.7696,-0.7694,-0.7694,-0.7698,-0.7697,-0.7699,-0.7699,-0.7699,-0.7699,0,-0.7553,-0.7563,-0.7577,-0.7592,-0.7596,-0.7603,-0.7615,-0.7622,-0.7629,-0.764,-0.7643,-0.7654,-0.7665,-0.7673,-0.7687,-0.7691,-0.7702,-0.7703,-0.7698,-0.7699,-0.7702,-0.7702,-0.7712,-0.7714,-0.7709,-0.771,-0.771,0,-0.7557,-0.7565,-0.7581,-0.7587,-0.7594,-0.7604,-0.7612,-0.7621,-0.7628,-0.7641,-0.7647,-0.7658,-0.7667,-0.7683,-0.7692,-0.7703,-0.7705,-0.7708,-0.7706,-0.7704,-0.7704,-0.7704,-0.7705,-0.7708,-0.7708,-0.7708,-0.7708,0,-0.7563,-0.7568,-0.7578,-0.7591,-0.7599,-0.7609,-0.7619,-0.7624,-0.7635,-0.7642,-0.7653,-0.7661,-0.7675,-0.7686,-0.7697,-0.7703,-0.7707,-0.7708,-0.771,-0.7707,-0.7704,-0.7706,-0.7698,-0.7708,-0.7708,-0.7708,-0.7708,-0.7708,-0.7566,-0.7573,-0.7585,-0.7596,-0.7605,-0.7614,-0.7622,-0.763,-0.764,-0.7652,-0.7657,-0.7668,-0.7679,-0.7694,-0.7701,-0.7709,-0.771,-0.7712,-0.7712,-0.7713,-0.7712,-0.7703,-0.7711,-0.7711,-0.7711,-0.7711,-0.7711,0,-0.7572,-0.758,-0.7591,-0.7605,-0.7613,-0.7617,-0.7628,-0.7635,-0.7645,-0.7655,-0.7664,-0.7677,-0.7687,-0.7697,-0.7707,-0.7712,-0.7714,-0.7715,-0.7714,-0.7716,-0.7711,-0.7709,-0.7713,-0.7713,-0.7713,-0.7713,-0.7713,-0.7713,-0.7576,-0.7589,-0.7594,-0.761,-0.7618,-0.763,-0.7636,-0.7644,-0.7652,-0.7666,-0.7675,-0.7681,-0.7691,-0.7702,-0.7712,-0.7714,-0.7718,-0.7717,-0.772,-0.7716,-0.7716,-0.7716,-0.7714,-0.7718,-0.7718,-0.7724,-0.7724,-0.7724]}]]